timestamp,surface_pressure_avg,surface_temp_avg,battery_voltage,lat,long
2021-05-27 00:09:01+00:00,394.5212,6.7,12.97,47.84626,-54.09684
2021-05-27 00:19:01+00:00,392.3946,6.7,12.73,47.84626,-54.09684
2021-05-27 00:29:01+00:00,389.3546,6.7,12.73,47.84626,-54.09684
2021-05-27 00:39:01+00:00,386.5613,6.7,12.73,47.84626,-54.09684
2021-05-27 00:49:01+00:00,380.8162,6.7,12.73,47.84626,-54.09684
2021-05-27 00:59:01+00:00,372.0797,6.7,12.73,47.84626,-54.09684
2021-05-27 01:09:01+00:00,367.7963,6.7,12.73,47.84626,-54.09684
2021-05-27 01:19:00+00:00,368.0696,6.7,12.65,47.84626,-54.09684
2021-05-27 01:29:00+00:00,363.4896,6.7,12.65,47.84626,-54.09684
2021-05-27 01:39:00+00:00,357.7546,6.7,12.65,47.84626,-54.09684
2021-05-27 01:49:00+00:00,352.2081,6.7,12.65,47.84626,-54.09684
2021-05-27 01:59:00+00:00,344.9547,6.7,12.65,47.84626,-54.09684
2021-05-27 02:09:00+00:00,335.5946,6.7,12.65,47.84626,-54.09684
2021-05-27 02:19:00+00:00,323.923,6.7,12.65,47.84626,-54.09684
2021-05-27 02:29:00+00:00,311.0997,6.7,12.65,47.84626,-54.09684
2021-05-27 02:39:00+00:00,298.4014,6.7,12.65,47.84626,-54.09684
2021-05-27 02:49:00+00:00,289.0031,6.7,12.65,47.84626,-54.09684
2021-05-27 02:59:00+00:00,278.143,6.69,12.65,47.84626,-54.09684
2021-05-27 03:09:00+00:00,267.5497,6.66,12.65,47.84626,-54.09684
2021-05-27 03:19:00+00:00,256.8047,6.66,12.65,47.84626,-54.09684
2021-05-27 03:29:00+00:00,244.7747,6.66,12.65,47.84626,-54.09684
2021-05-27 03:39:00+00:00,232.6348,6.67,12.65,47.84626,-54.09684
2021-05-27 03:49:00+00:00,220.7248,6.69,12.65,47.84626,-54.09684
2021-05-27 03:59:00+00:00,216.8365,6.69,12.65,47.84626,-54.09684
2021-05-27 04:09:00+00:00,212.6264,6.69,12.65,47.84626,-54.09684
2021-05-27 04:19:00+00:00,201.5264,6.64,12.65,47.84626,-54.09684
2021-05-27 04:29:00+00:00,191.5998,6.61,12.65,47.84626,-54.09684
2021-05-27 04:39:00+00:00,189.9431,6.6,12.65,47.84626,-54.09684
2021-05-27 04:49:00+00:00,185.2698,6.6,12.65,47.84626,-54.09684
2021-05-27 04:59:00+00:00,178.7198,6.62,12.65,47.84626,-54.09684
2021-05-27 05:09:00+00:00,179.5715,6.63,12.65,47.84626,-54.09684
2021-05-27 05:19:00+00:00,175.3215,6.65,12.65,47.84626,-54.09684
2021-05-27 05:29:00+00:00,167.5432,6.67,12.65,47.84626,-54.09684
2021-05-27 05:39:00+00:00,164.6815,6.69,12.65,47.84626,-54.09684
2021-05-27 05:49:00+00:00,164.2398,6.69,12.65,47.84626,-54.09684
2021-05-27 05:59:00+00:00,163.2181,6.7,12.65,47.84626,-54.09684
2021-05-27 06:09:00+00:00,161.7032,6.7,12.65,47.84626,-54.09684
2021-05-27 06:19:01+00:00,164.0865,6.7,12.65,47.84626,-54.09684
2021-05-27 06:29:01+00:00,169.3032,6.7,12.65,47.84626,-54.09684
2021-05-27 06:39:01+00:00,171.0398,6.7,12.65,47.84626,-54.09684
2021-05-27 06:49:01+00:00,169.4165,6.7,12.65,47.84626,-54.09684
2021-05-27 06:59:01+00:00,171.3682,6.7,12.65,47.84626,-54.09684
2021-05-27 07:09:01+00:00,178.0182,6.7,12.65,47.84626,-54.09684
2021-05-27 07:19:01+00:00,182.5882,6.7,12.65,47.84626,-54.09684
2021-05-27 07:29:01+00:00,185.6864,6.7,12.65,47.84626,-54.09684
2021-05-27 07:39:01+00:00,190.5148,6.71,12.65,47.84626,-54.09684
2021-05-27 07:49:01+00:00,190.9615,6.73,12.65,47.84626,-54.09684
2021-05-27 07:59:01+00:00,194.8914,6.74,12.65,47.84626,-54.09684
2021-05-27 08:09:01+00:00,203.6298,6.7,12.65,47.84626,-54.09684
2021-05-27 08:19:01+00:00,205.3448,6.7,12.57,47.84626,-54.09684
2021-05-27 08:29:01+00:00,206.1097,6.74,12.57,47.84626,-54.09684
2021-05-27 08:39:01+00:00,215.6131,6.71,12.57,47.84626,-54.09684
2021-05-27 08:49:01+00:00,220.9298,6.7,12.57,47.84626,-54.09684
2021-05-27 08:59:01+00:00,221.4114,6.71,12.57,47.84626,-54.09684
2021-05-27 09:09:01+00:00,233.6765,6.71,12.57,47.84626,-54.09684
2021-05-27 09:19:00+00:00,247.0997,6.7,12.57,47.84626,-54.09684
2021-05-27 09:29:00+00:00,247.4231,6.7,12.57,47.84626,-54.09684
2021-05-27 09:39:00+00:00,252.3548,6.7,12.57,47.84626,-54.09684
2021-05-27 09:49:00+00:00,265.9531,6.7,12.57,47.84626,-54.09684
2021-05-27 09:59:00+00:00,276.6147,6.7,12.57,47.84626,-54.09684
2021-05-27 10:09:00+00:00,281.7263,6.7,12.57,47.84626,-54.09684
2021-05-27 10:19:01+00:00,294.643,6.71,12.65,47.84626,-54.09684
2021-05-27 10:29:01+00:00,305.2997,6.7,12.65,47.84626,-54.09684
2021-05-27 10:39:01+00:00,307.343,6.7,12.65,47.84626,-54.09684
2021-05-27 10:49:01+00:00,313.3046,6.72,12.65,47.84626,-54.09684
2021-05-27 10:59:01+00:00,326.8997,6.71,12.65,47.84626,-54.09684
2021-05-27 11:09:01+00:00,334.2263,6.7,12.65,47.84626,-54.09684
2021-05-27 11:19:00+00:00,333.5197,6.71,12.81,47.84626,-54.09684
2021-05-27 11:29:00+00:00,338.6963,6.73,12.81,47.84626,-54.09684
2021-05-27 11:39:00+00:00,347.2463,6.75,12.81,47.84626,-54.09684
2021-05-27 11:49:00+00:00,350.5696,6.76,12.81,47.84626,-54.09684
2021-05-27 11:59:00+00:00,350.7046,6.77,12.81,47.84626,-54.09684
2021-05-27 12:09:00+00:00,349.6063,6.79,12.81,47.84626,-54.09684
2021-05-27 12:19:01+00:00,354.6797,6.8,13.37,47.84626,-54.09684
2021-05-27 12:29:01+00:00,352.1196,6.8,13.37,47.84626,-54.09684
2021-05-27 12:39:01+00:00,355.4697,6.8,13.37,47.84626,-54.09684
2021-05-27 12:49:01+00:00,358.5946,6.8,13.37,47.84626,-54.09684
2021-05-27 12:59:01+00:00,356.5579,6.8,13.37,47.84626,-54.09684
2021-05-27 13:09:01+00:00,349.1446,6.8,13.37,47.84626,-54.09684
2021-05-27 13:19:01+00:00,346.3229,6.84,14.08,47.84626,-54.09684
2021-05-27 13:29:01+00:00,346.9031,6.86,14.08,47.84626,-54.09684
2021-05-27 13:39:01+00:00,340.6196,6.87,14.08,47.84626,-54.09684
2021-05-27 13:49:01+00:00,332.05800000000005,6.89,14.08,47.84626,-54.09684
2021-05-27 13:59:01+00:00,322.673,6.9,14.08,47.84626,-54.09684
2021-05-27 14:09:01+00:00,318.1064,6.9,14.08,47.84626,-54.09684
2021-05-27 14:19:00+00:00,313.828,6.9,13.84,47.84626,-54.09684
2021-05-27 14:29:00+00:00,303.8364,6.9,13.84,47.84626,-54.09684
2021-05-27 14:39:00+00:00,295.0913,6.9,13.84,47.84626,-54.09684
2021-05-27 14:49:00+00:00,290.3397,6.9,13.84,47.84626,-54.09684
2021-05-27 14:59:00+00:00,281.1197,6.9,13.84,47.84626,-54.09684
2021-05-27 15:09:00+00:00,267.6397,6.9,13.84,47.84626,-54.09684
2021-05-27 15:19:00+00:00,263.2431,6.9,14.08,47.84626,-54.09684
2021-05-27 15:29:00+00:00,255.9081,6.9,14.08,47.84626,-54.09684
2021-05-27 15:39:00+00:00,242.7015,6.93,14.08,47.84626,-54.09684
2021-05-27 15:49:00+00:00,229.9248,6.96,14.08,47.84626,-54.09684
2021-05-27 15:59:00+00:00,221.8681,6.98,14.08,47.84626,-54.09684
2021-05-27 16:09:00+00:00,214.1681,6.99,14.08,47.84626,-54.09684
2021-05-27 16:19:01+00:00,204.6664,6.99,13.76,47.84626,-54.09684
2021-05-27 16:29:01+00:00,195.3131,7.0,13.76,47.84626,-54.09684
2021-05-27 16:39:01+00:00,192.2365,7.0,13.76,47.84626,-54.09684
2021-05-27 16:49:01+00:00,189.8998,6.99,13.76,47.84626,-54.09684
2021-05-27 16:59:01+00:00,182.2064,7.0,13.76,47.84626,-54.09684
2021-05-27 17:09:01+00:00,172.7898,7.0,13.76,47.84626,-54.09684
2021-05-27 17:19:01+00:00,166.5098,7.0,13.68,47.84626,-54.09684
2021-05-27 17:29:01+00:00,163.2132,7.0,13.68,47.84626,-54.09684
2021-05-27 17:39:01+00:00,160.1732,7.0,13.68,47.84626,-54.09684
2021-05-27 17:49:01+00:00,160.7648,7.0,13.68,47.84626,-54.09684
2021-05-27 17:59:01+00:00,163.9665,7.0,13.68,47.84626,-54.09684
2021-05-27 18:09:01+00:00,167.5048,7.0,13.68,47.84626,-54.09684
2021-05-27 18:19:01+00:00,171.0281,7.0,13.37,47.84626,-54.09684
2021-05-27 18:29:01+00:00,171.6615,7.0,13.37,47.84626,-54.09684
2021-05-27 18:39:01+00:00,172.5182,7.0,13.37,47.84626,-54.09684
2021-05-27 18:49:01+00:00,176.9498,7.0,13.37,47.84626,-54.09684
2021-05-27 18:59:01+00:00,184.3948,7.0,13.37,47.84626,-54.09684
2021-05-27 19:09:01+00:00,188.8281,7.0,13.37,47.84626,-54.09684
2021-05-27 19:19:01+00:00,189.6698,7.0,13.29,47.84626,-54.09684
2021-05-27 19:29:01+00:00,194.5314,7.03,13.29,47.84626,-54.09684
2021-05-27 19:39:01+00:00,201.1881,7.03,13.29,47.84626,-54.09684
2021-05-27 19:49:01+00:00,203.1714,7.0,13.29,47.84626,-54.09684
2021-05-27 19:59:01+00:00,203.3765,7.0,13.29,47.84626,-54.09684
2021-05-27 20:09:01+00:00,208.1631,7.0,13.29,47.84626,-54.09684
2021-05-27 20:19:01+00:00,218.0981,7.0,13.29,47.84626,-54.09684
2021-05-27 20:29:01+00:00,221.4064,7.0,13.29,47.84626,-54.09684
2021-05-27 20:39:01+00:00,225.7948,7.01,13.29,47.84626,-54.09684
2021-05-27 20:49:01+00:00,238.2764,7.0,13.29,47.84626,-54.09684
2021-05-27 20:59:01+00:00,243.9231,7.0,13.29,47.84626,-54.09684
2021-05-27 21:09:01+00:00,240.8997,7.0,13.29,47.84626,-54.09684
2021-05-27 21:19:01+00:00,252.5014,7.01,13.21,47.84626,-54.09684
2021-05-27 21:29:01+00:00,264.6197,7.01,13.21,47.84626,-54.09684
2021-05-27 21:39:01+00:00,271.398,7.01,13.21,47.84626,-54.09684
2021-05-27 21:49:01+00:00,276.2848,7.01,13.21,47.84626,-54.09684
2021-05-27 21:59:01+00:00,288.3864,7.0,13.21,47.84626,-54.09684
2021-05-27 22:09:01+00:00,300.2297,7.0,13.21,47.84626,-54.09684
2021-05-27 22:19:01+00:00,318.0413,7.0,12.89,47.84626,-54.09684
2021-05-27 22:29:01+00:00,329.3413,7.0,12.89,47.84626,-54.09684
2021-05-27 22:39:01+00:00,340.223,7.01,12.89,47.84626,-54.09684
2021-05-27 22:49:01+00:00,349.2396,7.04,12.89,47.84626,-54.09684
2021-05-27 22:59:01+00:00,362.5446,7.02,12.89,47.84626,-54.09684
2021-05-27 23:09:01+00:00,368.1729,7.04,12.89,47.84626,-54.09684
2021-05-27 23:19:01+00:00,370.5079,7.04,12.65,47.84626,-54.09684
2021-05-27 23:29:01+00:00,371.3746,7.06,12.65,47.84626,-54.09684
2021-05-27 23:39:01+00:00,383.2512,7.06,12.65,47.84626,-54.09684
2021-05-27 23:49:01+00:00,387.0496,7.07,12.65,47.84626,-54.09684
2021-05-27 23:59:01+00:00,383.4429,7.06,12.65,47.84626,-54.09684
